Regional Weather Roundup
Issued by NWS State College, PA

Home | Current Version | Previous Version | Text Only | Print | Product List | Glossary Off
Versions: 1 2 3 4 5 6 7 8 9 10 11 12 13 14 15 16 17 18 19 20 21 22 23 24 25 26 27 28 29 30 31 32 33 34 35 36 37 38 39 40 41 42 43 44 45 46 47 48 49 50

000
ASUS41 KCTP 301703
RWRCTP

REGIONAL WEATHER ROUNDUP
NATIONAL WEATHER SERVICE STATE COLLEGE PA
100 PM EDT WED JUL 30 2014

Note: "fair" indicates few or no clouds below 12,000 feet with no
significant weather and/or obstructions to visibility.

* = STATION THAT DOES NOT REPORT PRECIPITATION /E.G. RAIN...SNOW...ETC/
    THUNDER OR FOG.

PAZ002>004-007>009-013>016-020>023-029>032-301800-
WESTERN PENNSYLVANIA

CITY           SKY/WX    TMP DP  RH WIND       PRES   REMARKS
ERIE           MOSUNNY   72  58  61 W14       29.99F
MEADVILLE      LGT RAIN  64  56  75 W13       30.03S
FRANKLIN*      PTSUNNY   70  55  60 SW8G16    30.04F
NEW CASTLE     PTSUNNY   74  59  59 SW9       30.04F
BEAVER COUNTY  PTSUNNY   72  57  60 SW3       30.04F
BUTLER*        PTSUNNY   72  57  60 SW10      30.07S
PITTSBURGH INT PTSUNNY   71  56  58 SW13      30.05F
PITTSBURGH     PTSUNNY   69  55  60 SW7       30.05F
INDIANA*       PTSUNNY   70  57  64 SW10      30.10F
LATROBE        PTSUNNY   70  61  73 SW12      30.08F
WASHINGTON CO* PTSUNNY   72  59  64 SW10      30.07F
$$

PAZ004>006-010>012-017>019-024>028-033>037-041-042-045-046-049>053-301800-
CENTRAL PENNSYLVANIA

CITY           SKY/WX    TMP DP  RH WIND       PRES   REMARKS
BRADFORD       CLOUDY    61  56  83 VRB6      30.05F
DUBOIS         CLOUDY    67  56  67 SW14      30.05F
CLEARFIELD     PTSUNNY   67  55  65 SW9       30.06F
JOHNSTOWN      PTSUNNY   65  53  65 W9        30.09F
ALTOONA        MOSUNNY   69  54  58 SW9G16    30.08F
STATE COLLEGE  PTSUNNY   68  55  64 SW12      30.07S
WILLIAMSPORT   MOSUNNY   72  54  53 CALM      30.03F
SELINSGROVE    MOSUNNY   75  57  53 VRB3      30.05F
FT INDIANTOWN  MOSUNNY   74  55  51 SW6       30.06S
CAPITAL CITY   SUNNY     73  52  47 VRB6      30.05F
HARRISBURG     MOSUNNY   75  52  44 W5        30.05F
YORK           SUNNY     74  54  49 NW5       30.06F
$$

PAZ038>040-043-044-047-048-054-055-060>062-067>071-301800-
EASTERN PENNSYLVANIA

CITY           SKY/WX    TMP DP  RH WIND       PRES   REMARKS
SCRANTON       PTSUNNY   74  50  42 VRB6      30.04F
MOUNT POCONO   CLOUDY    68  48  48 SW8       30.07F
ALLENTOWN      MOSUNNY   75  55  49 SW8       30.04F
QUAKERTOWN*    SUNNY     73  54  49 SW6       30.06S
READING        MOSUNNY   75  55  49 SW7       30.04F
LANCASTER      SUNNY     71  54  54 W6        30.06F
COATESVILLE    MOSUNNY   73  54  49 NW6       30.07F
POTTSTOWN      MOSUNNY   74  55  51 SW5       30.06F
BLUE BELL      SUNNY     75  55  50 CALM      30.04F
DOYLESTOWN     MOSUNNY   76  52  43 VRB3      30.04F
WILLOW GROVE   NOT AVBL
NORTH PHILA    SUNNY     78  48  34 NW7       30.05F
PHILADELPHIA   MOSUNNY   76  50  40 SW9       30.04F
$$


USA.gov is the U.S. government's official web portal to all federal, state and local government web resources and services.